This demonstration page uses our WeatherBlox Daily Observations layout. Learn more.

39.01783, -85.05884

Hourly Observations for October 31, 2020

Temp ( °F °C ) Dew Point ( °F °C ) Humidity (%) Winds ( mph kmh ) Pressure ( in mb ) Visibility ( mi km ) Precip ( " mm )
12:52 am 00:52 Clear 39 3.9 32 0 76 76 E 7 11 30.35 1028 10 16.0934 0 0
1:52 am 01:52 Clear 38 3.3 32 0 79 79 E 9 15 30.35 1028 10 16.0934 0 0
2:52 am 02:52 Clear 38 3.3 31 -0.6 76 76 ESE 8 13 30.36 1028 10 16.0934 0 0
3:52 am 03:52 Clear 37 2.8 30 -1.1 76 76 SE 10 17 30.35 1028 10 16.0934 0 0
4:52 am 04:52 Clear 37 2.8 30 -1.1 76 76 SE 8 13 30.36 1028 10 16.0934 0 0
5:52 am 05:52 Clear 36 2.2 29 -1.7 76 76 Calm 30.38 1029 10 16.0934 0 0
6:52 am 06:52 Clear 35 1.7 30 -1.1 82 82 ESE 7 11 30.39 1029 10 16.0934 0 0
7:52 am 07:52 Clear 36 2.2 30 -1.1 79 79 ESE 7 11 30.39 1029 10 16.0934 0 0
8:52 am 08:52 Mostly Sunny 37 2.8 31 -0.6 79 79 ESE 5 7 30.39 1029 10 16.0934 0 0
9:52 am 09:52 Mostly Sunny 41 5 32 0 70 70 SE 10 17 30.4 1029 10 16.0934 0 0
10:52 am 10:52 Mostly Sunny 46 7.8 33 0.6 61 61 SE 12 19 30.39 1029 10 16.0934 0 0
11:52 am 11:52 Mostly Sunny 50 10 34 1.1 54 54 SE 12 19 30.37 1029 10 16.0934 0 0
12:52 pm 12:52 Mostly Sunny 51 10.6 36 2.2 56 56 SSE 10 17 30.36 1028 10 16.0934 0 0
1:52 pm 13:52 Mostly Sunny 53 11.7 36 2.2 52 52 SSE 12 19 30.32 1027 10 16.0934 0 0
2:52 pm 14:52 Mostly Sunny 55 12.8 37 2.8 51 51 SSE 10 17 30.27 1025 10 16.0934 0 0
3:52 pm 15:52 Mostly Sunny 56 13.3 37 2.8 49 49 SSE 10 17 30.24 1024 10 16.0934 0 0
4:52 pm 16:52 Sunny 57 13.9 38 3.3 49 49 SSE 12 19 30.22 1023 10 16.0934 0 0
5:52 pm 17:52 Mostly Sunny 55 12.8 38 3.3 53 53 SSE 13 20 30.2 1023 10 16.0934 0 0
6:52 pm 18:52 Partly Cloudy 50 10 38 3.3 63 63 SSE 10 17 30.19 1022 10 16.0934 0 0
7:52 pm 19:52 Partly Cloudy 48 8.9 38 3.3 68 68 SSE 8 13 30.17 1022 10 16.0934 0 0
8:52 pm 20:52 Mostly Cloudy 48 8.9 38 3.3 68 68 SSE 8 13 30.15 1021 10 16.0934 0 0
9:52 pm 21:52 Cloudy 50 10 38 3.3 63 63 S 8 13 30.13 1020 10 16.0934 0 0
10:52 pm 22:52 Partly Cloudy 49 9.4 38 3.3 66 66 S 10 17 30.11 1020 10 16.0934 0 0
11:52 pm 23:52 Partly Cloudy 48 8.9 38 3.3 68 68 S 8 13 30.09 1019 10 16.0934 0 0

Powered by AerisWeather